When you browse on this site, cookies collect data to enhance your experience and personalize the content and advertising you see.
Visit our Privacy Policy to learn more. By continuing to use the site, you agree to this use of cookies and data.
  • In Latvia
  • List of Countries
  • For 7 days
  • Water Temperature
  • Satellite Maps
  • Weather Map
  • Weather Widgets
  • user-avatar
    Login

    Hourly Weather Shargorod

    Today, 20 February, Wednesday

    Time Temperature Precipitation Wind Pressure Humidity
    00:00 +2°C° 0 mm 3 mps 738 mmHg 91%
    01:00 +1°C° 0 mm 3 mps 738 mmHg 93%
    02:00 +1°C° 0 mm 2 mps 738 mmHg 94%
    03:00 +1°C° 0 mm 2 mps 737 mmHg 95%
    04:00 +1°C° 0 mm 2 mps 737 mmHg 95%
    05:00 +1°C° 0 mm 2 mps 737 mmHg 96%
    06:00 +1°C° 0 mm 2 mps 737 mmHg 95%
    07:00 +1°C° 0 mm 2 mps 737 mmHg 94%
    08:00 +1°C° 0 mm 3 mps 737 mmHg 92%
    09:00 +1°C° 0 mm 4 mps 737 mmHg 86%
    10:00 +4°C° 0 mm 4 mps 737 mmHg 81%
    11:00 +5°C° 0 mm 5 mps 738 mmHg 75%
    12:00 +4°C° 0 mm 6 mps 738 mmHg 74%
    13:00 +4°C° 0 mm 6 mps 738 mmHg 73%
    14:00 +5°C° 0 mm 6 mps 738 mmHg 70%
    15:00 +5°C° 0 mm 5 mps 738 mmHg 70%
    16:00 +5°C° 0 mm 5 mps 738 mmHg 70%
    17:00 +5°C° 0 mm 4 mps 738 mmHg 70%
    18:00 +4°C° 0 mm 4 mps 739 mmHg 74%
    19:00 +3°C° 0 mm 4 mps 739 mmHg 78%
    20:00 +1°C° 0 mm 4 mps 739 mmHg 82%
    21:00 +1°C° 0 mm 4 mps 739 mmHg 83%
    22:00 +1°C° 0 mm 5 mps 739 mmHg 83%
    23:00 +1°C° 0 mm 5 mps 740 mmHg 83%

    Tomorrow, 21 February, Thursday

    Time Temperature Precipitation Wind Pressure Humidity
    00:00 +1°C° 0 mm 5 mps 740 mmHg 82%
    01:00 +1°C° 0 mm 5 mps 740 mmHg 81%
    02:00 +1°C° 0 mm 6 mps 739 mmHg 80%
    03:00 -1°C° 0 mm 6 mps 740 mmHg 82%
    04:00 -1°C° 0 mm 6 mps 740 mmHg 83%
    05:00 -2°C° 0 mm 6 mps 740 mmHg 84%
    06:00 -2°C° 0 mm 6 mps 740 mmHg 84%
    07:00 -2°C° 0 mm 6 mps 740 mmHg 84%
    08:00 -2°C° 0 mm 6 mps 741 mmHg 84%
    09:00 -1°C° 0 mm 7 mps 741 mmHg 76%
    10:00 0°C° 0 mm 7 mps 741 mmHg 67%
    11:00 +1°C° 0 mm 8 mps 742 mmHg 59%
    12:00 +1°C° 0 mm 8 mps 741 mmHg 58%
    13:00 +2°C° 0 mm 8 mps 741 mmHg 58%
    14:00 +2°C° 0 mm 8 mps 741 mmHg 57%
    15:00 +3°C° 0 mm 7 mps 741 mmHg 61%
    16:00 +2°C° 0 mm 7 mps 741 mmHg 65%
    17:00 +2°C° 0 mm 6 mps 741 mmHg 68%
    18:00 +2°C° 0 mm 5 mps 741 mmHg 74%
    19:00 +1°C° 0 mm 4 mps 741 mmHg 79%
    20:00 +2°C° 0 mm 3 mps 741 mmHg 85%
    21:00 +3°C° 0.1 mm 2 mps 741 mmHg 87%
    22:00 +3°C° 0.1 mm 2 mps 741 mmHg 90%
    23:00 +4°C° 0.1 mm 1 mps 741 mmHg 93%

    Day after tomorrow, 22 February, Friday

    Time Temperature Precipitation Wind Pressure Humidity
    00:00 +3°C° 0.5 mm 2 mps 741 mmHg 93%
    01:00 +3°C° 0.5 mm 2 mps 740 mmHg 92%
    02:00 +3°C° 0.5 mm 2 mps 740 mmHg 92%
    03:00 +3°C° 1 mm 2 mps 739 mmHg 91%
    04:00 +3°C° 1 mm 2 mps 739 mmHg 91%
    05:00 +2°C° 1 mm 2 mps 738 mmHg 90%
    06:00 0°C° 0.8 mm 3 mps 738 mmHg 91%
    07:00 -2°C° 0.8 mm 4 mps 738 mmHg 92%
    08:00 -2°C° 0.8 mm 5 mps 738 mmHg 92%
    09:00 -4°C° 0.4 mm 6 mps 739 mmHg 90%
    10:00 -6°C° 0.4 mm 7 mps 739 mmHg 88%
    11:00 -7°C° 0.4 mm 8 mps 740 mmHg 85%
    12:00 -7°C° 0.2 mm 8 mps 740 mmHg 81%
    13:00 -7°C° 0.2 mm 8 mps 741 mmHg 77%
    14:00 -7°C° 0.2 mm 8 mps 742 mmHg 73%
    15:00 -8°C° 0 mm 7 mps 743 mmHg 71%
    16:00 -8°C° 0 mm 7 mps 744 mmHg 68%
    17:00 -9°C° 0 mm 6 mps 744 mmHg 65%
    18:00 -10°C° 0 mm 6 mps 745 mmHg 66%
    19:00 -10°C° 0 mm 6 mps 746 mmHg 66%
    20:00 -11°C° 0 mm 6 mps 746 mmHg 67%
    21:00 -11°C° 0 mm 6 mps 747 mmHg 67%
    22:00 -11°C° 0 mm 6 mps 747 mmHg 68%
    23:00 -11°C° 0 mm 6 mps 747 mmHg 68%

    23 February, Saturday

    Time Temperature Precipitation Wind Pressure Humidity
    00:00 -12°C° 0 mm 7 mps 747 mmHg 69%
    01:00 -12°C° 0 mm 7 mps 748 mmHg 70%
    02:00 -12°C° 0 mm 7 mps 748 mmHg 70%
    03:00 -12°C° 0 mm 7 mps 748 mmHg 70%
    04:00 -12°C° 0 mm 7 mps 749 mmHg 70%
    05:00 -12°C° 0 mm 7 mps 749 mmHg 70%
    06:00 -13°C° 0 mm 7 mps 749 mmHg 70%
    07:00 -13°C° 0 mm 7 mps 750 mmHg 70%
    08:00 -13°C° 0 mm 7 mps 750 mmHg 70%
    09:00 -12°C° 0 mm 7 mps 751 mmHg 68%
    10:00 -12°C° 0 mm 7 mps 751 mmHg 66%
    11:00 -12°C° 0 mm 7 mps 751 mmHg 65%
    12:00 -11°C° 0 mm 7 mps 751 mmHg 65%
    13:00 -11°C° 0 mm 7 mps 751 mmHg 65%
    14:00 -11°C° 0 mm 7 mps 751 mmHg 65%
    15:00 -10°C° 0 mm 6 mps 751 mmHg 65%
    16:00 -10°C° 0 mm 6 mps 751 mmHg 66%
    17:00 -10°C° 0 mm 6 mps 751 mmHg 67%
    18:00 -10°C° 0 mm 5 mps 752 mmHg 69%
    19:00 -11°C° 0 mm 5 mps 752 mmHg 71%
    20:00 -10°C° 0 mm 4 mps 752 mmHg 73%
    21:00 -10°C° 0 mm 4 mps 752 mmHg 73%
    22:00 -10°C° 0 mm 4 mps 753 mmHg 74%
    23:00 -11°C° 0 mm 4 mps 753 mmHg 74%

    24 February, Sunday

    Time Temperature Precipitation Wind Pressure Humidity
    00:00 -11°C° 0 mm 4 mps 752 mmHg 75%
    01:00 -11°C° 0 mm 4 mps 752 mmHg 76%
    02:00 -10°C° 0 mm 3 mps 752 mmHg 77%
    03:00 -10°C° 0 mm 3 mps 752 mmHg 78%
    04:00 -10°C° 0 mm 3 mps 752 mmHg 79%
    05:00 -10°C° 0 mm 3 mps 752 mmHg 80%
    06:00 -10°C° 0 mm 3 mps 752 mmHg 79%
    07:00 -10°C° 0 mm 3 mps 752 mmHg 78%
    08:00 -10°C° 0 mm 3 mps 752 mmHg 76%
    09:00 -9°C° 0 mm 3 mps 752 mmHg 69%
    10:00 -9°C° 0 mm 4 mps 752 mmHg 62%
    11:00 -7°C° 0 mm 4 mps 752 mmHg 55%
    12:00 -5°C° 0 mm 4 mps 751 mmHg 53%
    13:00 -5°C° 0 mm 4 mps 751 mmHg 51%
    14:00 -4°C° 0 mm 4 mps 750 mmHg 48%
    15:00 -4°C° 0 mm 4 mps 750 mmHg 50%
    16:00 -4°C° 0 mm 4 mps 749 mmHg 52%
    17:00 -4°C° 0 mm 4 mps 749 mmHg 54%
    18:00 -4°C° 0 mm 4 mps 748 mmHg 58%
    19:00 -4°C° 0 mm 4 mps 748 mmHg 62%
    20:00 -4°C° 0 mm 4 mps 748 mmHg 66%
    21:00 -4°C° 0 mm 4 mps 747 mmHg 67%
    22:00 -4°C° 0 mm 4 mps 747 mmHg 67%
    23:00 -4°C° 0 mm 3 mps 746 mmHg 68%

    25 February, Monday

    Time Temperature Precipitation Wind Pressure Humidity
    00:00 -4°C° 0 mm 3 mps 746 mmHg 68%
    01:00 -4°C° 0 mm 3 mps 745 mmHg 67%
    02:00 -4°C° 0 mm 3 mps 744 mmHg 67%
    03:00 -4°C° 0 mm 3 mps 744 mmHg 70%
    04:00 -4°C° 0 mm 3 mps 743 mmHg 72%
    05:00 -2°C° 0 mm 3 mps 742 mmHg 75%
    06:00 -2°C° 0.4 mm 3 mps 741 mmHg 82%
    07:00 -2°C° 0.4 mm 3 mps 741 mmHg 88%
    08:00 -2°C° 0.4 mm 3 mps 740 mmHg 95%
    09:00 -2°C° 0.7 mm 4 mps 740 mmHg 94%
    10:00 -2°C° 0.7 mm 4 mps 739 mmHg 93%
    11:00 -1°C° 0.7 mm 5 mps 739 mmHg 92%
    12:00 -2°C° 0.3 mm 6 mps 739 mmHg 90%
    13:00 -2°C° 0.3 mm 8 mps 739 mmHg 88%
    14:00 -3°C° 0.3 mm 9 mps 739 mmHg 85%
    15:00 -3°C° 0.2 mm 9 mps 739 mmHg 85%
    16:00 -3°C° 0.2 mm 9 mps 739 mmHg 84%
    17:00 -2°C° 0.2 mm 8 mps 739 mmHg 83%
    18:00 -2°C° 0 mm 8 mps 739 mmHg 83%
    19:00 -2°C° 0 mm 8 mps 739 mmHg 83%
    20:00 -4°C° 0 mm 8 mps 740 mmHg 83%
    21:00 -3°C° 0 mm 7 mps 740 mmHg 84%
    22:00 -3°C° 0 mm 7 mps 740 mmHg 84%
    23:00 -3°C° 0 mm 7 mps 740 mmHg 84%
    Show more